Location: Whitehorse
(60.7170°N, 135.0500°W)
Time: 15:30:13
(UTC-07:00)

SL-16 R/B - Visible Passes

Search period start: 26 March 2015 00:00
Search period end: 05 April 2015 00:00
Orbit: 841 x 849 km, 71.0° (Epoch: 26 March)

Date Brightness Start Highest point End Pass type
(mag) Time Alt. Az. Time Alt. Az. Time Alt. Az.
26 Mar 4.1 00:21:17 10° NW 00:25:25 21° WSW 00:27:47 16° SW visible
26 Mar 2.4 22:22:24 10° NW 22:28:06 72° SW 22:32:30 17° SSE visible
27 Mar 4.1 00:07:16 10° NW 00:11:27 21° WSW 00:14:24 14° SW visible
27 Mar 2.4 22:08:24 10° NW 22:14:07 74° SW 22:19:10 13° SSE visible
27 Mar 4.1 23:53:14 10° NW 23:57:30 22° WSW 00:01:04 12° SSW visible
28 Mar 2.4 21:54:24 10° NW 22:00:07 75° SW 22:05:49 10° SSE visible
28 Mar 4.1 23:39:13 10° NW 23:43:31 22° WSW 23:47:43 10° SSW visible
29 Mar 2.4 21:40:25 10° NW 21:46:08 76° SW 21:51:50 10° SSE visible
29 Mar 4.1 23:25:12 10° NW 23:29:33 22° WSW 23:33:48 10° SSW visible
30 Mar 2.4 21:26:25 10° NW 21:32:09 78° SW 21:37:51 10° SSE visible
30 Mar 4.2 23:11:11 10° NW 23:15:35 23° WSW 23:19:53 10° SSW visible
31 Mar 4.2 22:57:10 10° NW 23:01:37 24° WSW 23:05:58 10° SSW visible
01 Apr 4.2 22:43:09 10° NW 22:47:40 24° WSW 22:52:03 10° SSW visible
02 Apr 4.2 22:29:08 10° NW 22:33:41 25° WSW 22:38:08 10° SSW visible
03 Apr 4.2 22:15:08 10° NW 22:19:43 25° WSW 22:24:13 10° SSW visible
04 Apr 4.3 22:01:07 10° NW 22:05:45 26° WSW 22:10:18 10° SSW visible
